Location: �i�ul�kov Mlyn
(48.5427°N, 17.0708°E)
Time: 00:18:04
(UTC+00:00)

Daily predictions for brighter satellites

Satellite Brightness Start Highest point End
(mag) Time Altitude Azimuth Time Altitude Azimuth Time Altitude Azimuth
Cosmos 2322 Rocket 4.4 00:52:39 21° NE 00:52:39 21° NE 00:54:39 10° NE
Cosmos 2360 Rocket 4.3 01:03:17 22° ENE 01:03:17 22° ENE 01:06:07 10° NE
Cosmos 1980 Rocket 4.3 01:10:32 21° NNE 01:10:32 21° NNE 01:12:24 10° NNE
ATLAS 3B R/B 4.4 01:11:14 22° N 01:13:18 25° NNE 01:18:45 10° ENE
CENTAUR R/B 4.3 01:23:40 20° NNW 01:27:56 34° NNE 01:35:23 10° E
Resurs 1-4 Rocket 4.4 01:25:27 10° N 01:26:36 16° N 01:26:36 16° N
Nadezhda 1 Rocket 4.4 01:44:13 10° N 01:49:21 58° NNE 01:49:21 58° NNE
Lacrosse 4 Rocket 4.2 01:56:09 13° NNE 01:56:09 13° NNE 01:56:39 10° NNE
Cosmos 1745 Rocket 4.2 01:55:32 68° ENE 01:55:32 68° ENE 02:01:27 10° NNE
CZ-2D R/B 4.3 01:53:54 10° N 01:54:53 15° N 01:54:53 15° N
SL-16 R/B 3.1 02:02:37 40° N 02:02:37 40° N 02:06:21 10° NNE
NOSS 3-2 (A) 4.4 01:56:42 24° NNW 02:01:18 58° NE 02:09:23 10° ESE
ADEOS II 3.4 01:59:17 10° N 02:02:01 31° N 02:02:01 31° N
USA 267 3.1 02:04:59 10° NE 02:11:34 87° NNW 02:11:54 81° W
BREEZE-M DEB (TANK) 3.7 02:14:51 47° SE 02:14:51 47° SE 02:17:24 10° E
Cosmos 2219 Rocket 3.7 02:12:09 20° SSE 02:14:56 31° ESE 02:19:48 10° NE
Cosmos 2237 4.2 02:15:24 77° E 02:15:24 77° E 02:20:55 10° NNE
ARIANE 5 R/B 4.0 02:17:28 10° N 02:19:49 26° N 02:19:49 26° N
Cosmos 1386 Rocket 4.4 02:26:14 72° SW 02:26:52 81° W 02:33:20 10° N
PSLV R/B 4.4 02:23:26 10° NNE 02:27:33 46° E 02:27:42 46° ESE
COSMOS 2428 3.8 02:25:19 22° SSE 02:28:23 40° ESE 02:33:39 10° NE
COSMOS 2455 3.0 02:27:14 54° S 02:28:27 68° ESE 02:34:27 10° NE
Cosmos 2322 Rocket 3.0 02:34:28 38° NNW 02:34:28 38° NNW 02:38:50 10° NNE
CZ-2C R/B 4.3 02:33:39 10° NNE 02:38:14 31° E 02:42:46 10° SSE
NOSS 3-1 (A) 4.5 02:38:09 31° NW 02:39:01 32° NNW 02:45:09 10° NE
Meteor 1-23 Rocket 4.3 02:40:21 55° NW 02:40:21 55° NW 02:45:14 10° N
IDEFIX/ARIANE 42P 2.7 02:36:16 10° NNE 02:41:32 70° ESE 02:44:01 32° S
Cosmos 921 Rocket 4.3 02:38:22 10° N 02:42:29 39° ENE 02:46:29 10° SE
Cosmos 1733 3.8 02:41:06 10° N 02:44:55 55° ENE 02:48:42 10° SSE
Cosmos 2360 Rocket 2.2 02:45:05 60° WNW 02:45:12 60° WNW 02:50:49 10° NNE
NOSS 2-2 (D) 4.4 02:45:53 35° SE 02:46:17 36° ESE 02:50:04 10° NE
ATLAS 5 CENTAUR R/B 4.4 02:43:37 18° NNW 02:46:39 31° NNE 02:58:21 10° E
USA 234 3.3 02:40:22 10° SSE 02:46:45 54° SW 02:47:40 50° WSW
Cosmos 1842 4.2 02:45:47 32° SE 02:47:08 47° E 02:50:57 10° NNE
Cosmos 1980 Rocket 4.2 02:52:18 14° NNW 02:52:18 14° NNW 02:55:16 10° N
Intercosmos 25 4.2 02:47:51 10° N 02:52:20 89° ENE 02:59:39 10° S
BREEZE-M DEB (TANK) 4.1 02:54:35 25° E 02:54:35 25° E 02:55:40 10° E
Cosmos 1992 Rocket 3.8 02:52:23 10° NNW 02:57:35 70° WSW 03:02:44 10° SSE
Cosmos 1066 Rocket 4.2 02:57:47 53° W 02:58:03 54° WNW 03:03:28 10° N
Cosmos 1844 Rocket 4.2 03:07:01 20° SSW 03:07:01 20° SSW 03:08:49 10° S
ATLAS 3B R/B 3.2 02:58:45 10° NW 03:05:21 59° NE 03:12:05 10° ESE
Cosmos 2251 Rocket 3.5 03:04:47 43° SW 03:06:30 70° WNW 03:11:53 10° NNE
Aureole 1 Rocket 3.8 03:00:49 13° SSW 03:06:59 80° ESE 03:12:08 10° NNE
CZ-4B R/B 4.3 03:05:38 10° NNE 03:09:31 38° E 03:13:12 10° SSE
Spot 2 4.0 03:05:50 10° N 03:09:37 56° WNW 03:09:37 56° WNW
NOSS 8 (E) 4.3 03:11:27 70° NE 03:11:27 70° NE 03:14:16 10° NE
Meteor 1-22 Rocket 4.1 03:08:08 10° NNW 03:13:25 55° W 03:18:33 10° S
Cosmos 1709 Rocket 4.0 03:09:43 21° SSW 03:13:54 61° WNW 03:20:12 10° N
MSX 3.8 03:11:51 10° NNE 03:17:38 89° WNW 03:23:22 10° SSW
Cosmos 292 Rocket 3.8 03:13:04 10° NNW 03:17:53 79° ENE 03:22:41 10° SSE
SL-24 R/B 4.4 03:14:22 10° N 03:18:42 64° WNW 03:20:09 38° SW
CENTAUR R/B 3.3 03:12:00 10° NW 03:19:53 77° NE 03:28:34 10° SE
Cosmos 2278 Rocket 2.2 03:15:11 10° NNW 03:20:55 83° ENE 03:26:35 10° SSE
Cosmos 2333 Rocket 2.1 03:17:32 21° SSW 03:21:29 85° WNW 03:27:14 10° NNE
Cosmos 44 3.4 03:18:49 16° NNW 03:22:17 64° NE 03:26:34 10° SE
NOSS 2-2 (C) 3.2 03:21:23 40° SSW 03:22:38 81° SE 03:26:53 10° NE
Meteor 1-21 4.2 03:17:17 10° S 03:22:52 85° E 03:28:31 10° NNE
ATLAS 2AS CENTAUR R/B 3.5 03:15:08 10° SSW 03:22:59 64° ESE 03:30:55 10° NE
Cosmos 1844 4.3 03:23:59 33° W 03:24:36 33° WSW 03:29:41 10° SSW
USA 238 DEB 3.9 03:19:19 14° NW 03:25:30 55° WSW 03:32:40 10° SSE
USA 238 3.9 03:19:24 14° NW 03:25:36 55° WSW 03:32:46 10° SSE
ADEOS 3.9 03:30:03 10° N 03:35:01 45° WNW 03:38:16 20° SW
Cosmos 1953 2.9 03:31:00 10° N 03:35:02 59° ENE 03:38:59 10° SSE
NOSS 8 (H) 4.0 03:35:19 43° SW 03:36:14 84° NW 03:39:25 10° NE
Gblst 52 Del rocket 4.3 03:33:03 25° WNW 03:36:16 67° N 03:42:06 10° E
Cosmos 2333 4.4 03:34:26 25° WSW 03:37:24 49° NW 03:42:54 10° NNE
Cosmos 1758 3.2 03:37:04 10° NNW 03:41:03 69° W 03:45:02 10° S
COSMO-SKYMED 1 3.2 03:37:25 10° SSE 03:41:40 57° ENE 03:45:57 10° N
ADEOS II 4.0 03:41:10 10° NNW 03:42:57 12° NW 03:42:57 12° NW
SL-16 R/B 3.9 03:44:29 14° NW 03:46:05 16° NW 03:49:29 10° N
BREEZE-M R/B 4.3 03:42:48 24° W 03:46:13 87° N 03:57:32 10° E
Cosmos 1378 4.0 03:46:03 29° W 03:46:23 29° WNW 03:49:43 10° N
Cosmos 2322 4.3 03:44:05 23° WSW 03:46:58 37° NW 03:52:17 10° NNE
Cosmos 407 Rocket 3.7 03:43:10 10° SSW 03:48:17 70° ESE 03:53:24 10° NNE
Cosmos 2074 Rocket 3.9 03:43:30 10° SSW 03:49:45 77° W 03:56:00 10° N
Meteor 1-4 Rocket 3.6 03:46:23 10° S 03:49:46 47° E 03:53:09 10° NNE
NOSS 3-2 (A) 4.3 03:45:07 10° NW 03:52:18 48° WSW 04:00:12 10° S
Cosmos 2181 Rocket 4.5 03:46:48 10° NNW 03:52:33 37° W 03:58:12 10° SSW
H-2A R/B 3.0 03:49:20 10° N 03:53:05 37° WNW 03:56:28 13° SW
Okean O Rocket 3.5 03:50:12 10° NNE 03:54:15 34° E 03:58:15 10° SSE
USA 267 3.8 03:48:03 10° ENE 03:54:16 48° NNW 03:59:15 16° W
CZ-4B R/B 3.7 03:50:43 10° N 03:54:34 68° WNW 03:58:36 10° SSW
USA 32 4.1 03:49:35 10° SSW 03:54:43 56° W 03:59:53 10° N
Cosmos 1726 Rocket 3.8 03:53:13 10° N 03:57:33 71° E 04:01:51 10° SSE
Cosmos 2219 Rocket 2.4 03:53:56 13° SW 03:58:41 48° NW 04:04:06 10° NNE
NOSS 2-2 (E) 3.8 03:56:51 22° WSW 03:59:02 44° NW 04:03:20 10° NE
GENESIS II 4.3 03:56:09 15° SW 03:59:22 66° NW 04:03:28 10° NE
NOSS 0 Rocket 3.9 03:55:12 10° SSW 04:01:22 85° WNW 04:07:37 10° NNE
Cosmos 2237 Rocket 2.3 03:58:16 10° SSW 04:03:57 85° ESE 04:09:42 10° NNE
Meteor 1-31 Rocket 3.0 04:04:28 10° N 04:08:08 45° WNW 04:11:46 10° SW
Cosmos 2058 Rocket 3.6 04:04:09 10° N 04:08:32 62° ENE 04:12:54 10° SSE
Cosmos 2228 2.9 04:04:58 10° N 04:09:16 83° W 04:13:30 10° S
ERBS 2.5 04:06:25 10° SW 04:09:43 69° SE 04:13:06 10° ENE
Cosmos 1025 Rocket 3.8 04:06:34 10° SW 04:10:18 29° WNW 04:14:06 10° N
COSMOS 2428 3.2 04:07:23 10° WSW 04:12:40 40° NW 04:18:00 10° NNE
NOSS 3-2 (C) 4.3 04:06:59 10° NW 04:14:14 50° WSW 04:22:14 10° SSE
COSMOS 2455 3.7 04:10:26 14° W 04:14:52 32° NW 04:20:14 10° NNE
CZ-2C R/B 2.9 04:11:40 10° N 04:16:34 43° WNW 04:21:25 10° SW
Cosmos 1470 3.6 04:13:56 10° NNW 04:17:19 28° W 04:20:40 10° SSW
COBE Rocket 4.0 04:12:35 10° S 04:17:33 66° W 04:22:40 10° NNW
Cosmos 2369 Rocket 4.0 04:13:53 10° NNW 04:18:45 29° NE 04:23:34 10° ESE
In-Cosmos 22 4.4 04:13:41 10° S 04:18:59 73° E 04:24:25 10° NNE
Cosmos 2322 Rocket 4.2 04:17:09 10° NW 04:19:14 12° NNW 04:21:18 10° N
Cosmos 1980 3.7 04:14:47 10° SW 04:20:25 71° WNW 04:26:06 10° NNE
Cosmos 921 Rocket 4.1 04:17:07 10° NW 04:20:32 23° W 04:23:54 10° SSW
IDEFIX/ARIANE 42P 3.9 04:16:49 10° NNW 04:20:38 21° WNW 04:24:25 10° WSW
Meteor PRIRODA 3.9 04:17:07 10° N 04:20:45 49° WNW 04:24:21 10° SSW
Cosmos 389 Rocket 2.7 04:18:44 10° SSW 04:22:01 44° WNW 04:25:21 10° N
CZ-4B R/B 3.8 04:17:14 10° NNE 04:22:32 60° ESE 04:27:44 10° S
Cosmos 1954 Rocket 4.3 04:18:28 10° SSW 04:23:41 72° ESE 04:28:54 10° NNE
Cosmos 1707 3.1 04:21:34 10° SSW 04:25:18 41° WNW 04:29:03 10° N
Cosmos 1484 Rocket 2.7 04:22:08 10° N 04:25:51 64° WNW 04:29:37 10° SSW
SKYMED 2 3.8 04:25:33 10° S 04:29:44 47° W 04:33:57 10° NNW
Cosmos 2360 Rocket 3.9 04:27:06 10° WNW 04:30:27 16° NW 04:33:50 10° N
NOSS 3-4 (A) 3.5 04:27:02 10° SW 04:33:05 81° NW 04:39:35 10° NE
NOSS 3-4 (C) 3.5 04:27:06 10° SW 04:33:10 82° NW 04:39:41 10° NE
GP-B 3.3 04:32:07 10° SSW 04:36:27 51° W 04:40:48 10° N
NOSS 2-2 (D) 4.4 04:33:34 10° W 04:36:58 30° NNW 04:40:59 10° NNE
Cosmos 1140 Rocket 3.5 04:34:58 10° SSW 04:40:08 65° WNW 04:45:19 10° NNE
Cosmos 1892 Rocket 3.6 04:36:11 10° SSW 04:40:36 65° WNW 04:45:01 10° N
ALOS 2.3 04:36:56 10° NNE 04:41:39 85° WNW 04:46:18 10° SSW
CZ-4B R/B 4.1 04:41:08 10° NNW 04:44:24 23° WNW 04:47:33 10° WSW
Meteor 2-10 4.1 04:39:23 10° NNW 04:44:26 60° W 04:49:38 10° S
Iridium 51 4.3 04:41:20 10° N 04:45:23 90° E 04:49:04 10° S
